Starlink 35465

operational
NORAD ID: 65871 Int'l Des: 2025-223 Owner: SPXS Country: US Constellation: starlink
NOTLE

About Starlink 35465

Description loading...

Live Position

Loading 3D Globe...

Upcoming Passes

Altitude History

Altitude vs Time

uPlot chart will show altitude changes over time

Two-Line Element Set

1 65871U 25223T 25310.92294466 .00031995 00000-0 80526-3 0 9995
2 65871 53.1633 146.2425 0001440 237.6842 122.4023 15.39667040 5386
Epoch: Nov 6, 2025 • Age: 6 hours

Current Status

Altitude 460.6 km
Velocity 7.64 km/s
Sub-Earth Point -43.20°S, 94.93°W
Launch Date Oct 3, 2025
Age 34 days
Type internet

Technical Details

Classification Payload
Mass 575.00 kg
Dry Mass 530.00 kg
Total Mass 575.00 kg
Length 0.30 m
Diameter 4.10 m
Span 29.00 m
Shape Box + pan
Manufacturer SPXS
Bus Type Starlink V2MO
Phase Status In Orbit
Owner/State SPXS/US

Large Constellations

Loading constellations...